Skip Page Navigation
NASA JPL Caltech
NASA Logo - Jet Propulsion Laboratory + View the NASA Portal
+ Center for Near-Earth Object Studies
JPL Home Earth Solar System Stars & Galaxies Technology
JPL Solar System Dynamics
BODIES ORBITS EPHEMERIDES TOOLS PHYSICAL DATA DISCOVERY FAQ SITE MAP
IMPORTANT: The SSD Announcement email list is now available. Major changes are coming in the near future, including possible hostname and/or URL changes. To be notified of such changes, subscribe to this email list.

Please visit this page for more details.


JPL Small-Body Database Browser
Search: [ help ]  
85596 (1998 FU77)
Classification: Main-belt Asteroid          SPK-ID: 2085596
Ephemeris | Orbit Diagram | Orbital Elements | Mission Design | Physical Parameters | Discovery Circumstances | Close-Approach Data ]

[ show orbit diagram ]
Orbital Elements at Epoch 2459000.5 (2020-May-31.0) TDB
Reference: JPL 22 (heliocentric ecliptic J2000)
 Element Value Uncertainty (1-sigma)   Units 
e .1146762362770097 4.3531e-08  
a 3.106318131392477 2.1604e-08 au
q 2.750097259405354 1.3551e-07 au
i 9.01354045281178 4.9123e-06 deg
node 161.4293551534923 2.9092e-05 deg
peri 42.67196350629641 3.5386e-05 deg
M 13.08002842622025 1.9424e-05 deg
tp 2458927.843660919135
(2020-Mar-19.34366092)
0.00010787 TDB
period 1999.711408629558
5.47
2.0861e-05
5.711e-08
d
yr
n .1800259769717047 1.878e-09 deg/d
Q 3.4625390033796 2.4081e-08 au
  Orbit Determination Parameters
   # obs. used (total)      622  
   data-arc span      9362 days (25.63 yr)  
   first obs. used      1994-09-09  
   last obs. used      2020-04-27  
   planetary ephem.      DE431  
   SB-pert. ephem.      SB431-N16  
   condition code      0  
   norm. resid. RMS      .58107  
   source      ORB  
   producer      Otto Matic  
   solution date      2020-May-20 15:38:30  

Additional Information
 Earth MOID = 1.75582 au 
 Jupiter MOID = 1.5205 au 
 T_jup = 3.191 
[ show covariance matrix ]

Ephemeris | Orbit Diagram | Orbital Elements | Mission Design | Physical Parameters | Discovery Circumstances | Close-Approach Data ]

Physical Parameter Table
Parameter Symbol Value Units Sigma Reference Notes
absolute magnitude H 14.7   n/a MPO426530  

85596 (1998 FU77)          Discovered 1998-Mar-24 by LINEAR at Socorro
Reference: 20040830/Numbers.arcLast Updated: 2004-09-06

[ show close-approach data ]
Alternate Designations
 1998 FU77 = 2003 BU26 
Ephemeris | Orbit Diagram | Orbital Elements | Mission Design | Physical Parameters | Discovery Circumstances | Close-Approach Data ]
ABOUT SSD CREDITS/AWARDS PRIVACY/COPYRIGHT GLOSSARY LINKS
FirstGov 2020-May-26 00:34 UT
(server date/time)  
NASA Home Page
Site Manager:   Ryan S. Park
Webmaster  Alan B. Chamberlin